When you browse on this site, cookies collect data to enhance your experience and personalize the content and advertising you see.
Visit our Privacy Policy to learn more. By continuing to use the site, you agree to this use of cookies and data.
  • In Denmark
  • List of Countries
  • For 7 days
  • Water Temperature
  • Satellite Maps
  • Weather Map
  • Weather Widgets
  • user-avatar
    Login

    Hourly Weather Wiktoria

    Today, 20 November, Tuesday

    Time Temperature Precipitation Wind Pressure Humidity
    00:00 +21°C° 0 mm 4 mps 746 mmHg 44%
    01:00 +20°C° 0 mm 4 mps 746 mmHg 46%
    02:00 +20°C° 0 mm 4 mps 745 mmHg 48%
    03:00 +20°C° 0 mm 5 mps 745 mmHg 51%
    04:00 +19°C° 0 mm 5 mps 744 mmHg 49%
    05:00 +20°C° 0.1 mm 5 mps 744 mmHg 54%
    06:00 +20°C° 0.1 mm 5 mps 745 mmHg 58%
    07:00 +21°C° 0.1 mm 6 mps 745 mmHg 63%
    08:00 +23°C° 0.1 mm 5 mps 744 mmHg 59%
    09:00 +26°C° 0.1 mm 5 mps 744 mmHg 55%
    10:00 +29°C° 0 mm 5 mps 743 mmHg 47%
    11:00 +30°C° 0.1 mm 5 mps 743 mmHg 43%
    12:00 +32°C° 0.1 mm 5 mps 742 mmHg 40%
    13:00 +33°C° 0.1 mm 5 mps 741 mmHg 37%
    14:00 +32°C° 0.1 mm 5 mps 740 mmHg 38%
    15:00 +32°C° 0.1 mm 5 mps 740 mmHg 39%
    16:00 +30°C° 0.1 mm 4 mps 739 mmHg 40%
    17:00 +28°C° 0.1 mm 4 mps 739 mmHg 48%
    18:00 +25°C° 0.1 mm 3 mps 739 mmHg 56%
    19:00 +23°C° 0.1 mm 2 mps 739 mmHg 63%
    20:00 +21°C° 0 mm 3 mps 739 mmHg 67%
    21:00 +20°C° 0 mm 3 mps 739 mmHg 70%
    22:00 +20°C° 0 mm 3 mps 739 mmHg 73%
    23:00 +19°C° 0.1 mm 3 mps 739 mmHg 78%

    Tomorrow, 21 November, Wednesday

    Time Temperature Precipitation Wind Pressure Humidity
    00:00 +18°C° 0.1 mm 3 mps 739 mmHg 82%
    01:00 +18°C° 0.1 mm 3 mps 739 mmHg 86%
    02:00 +17°C° 0.5 mm 3 mps 739 mmHg 88%
    03:00 +17°C° 0.5 mm 3 mps 739 mmHg 90%
    04:00 +16°C° 0.5 mm 3 mps 739 mmHg 92%
    05:00 +16°C° 0.2 mm 3 mps 739 mmHg 91%
    06:00 +16°C° 0.2 mm 3 mps 739 mmHg 89%
    07:00 +16°C° 0.2 mm 3 mps 739 mmHg 88%
    08:00 +17°C° 0 mm 3 mps 739 mmHg 77%
    09:00 +19°C° 0 mm 3 mps 739 mmHg 66%
    10:00 +20°C° 0 mm 3 mps 739 mmHg 55%
    11:00 +21°C° 0 mm 4 mps 739 mmHg 46%
    12:00 +23°C° 0 mm 5 mps 738 mmHg 37%
    13:00 +25°C° 0 mm 5 mps 737 mmHg 28%
    14:00 +25°C° 0 mm 5 mps 736 mmHg 29%
    15:00 +25°C° 0 mm 5 mps 736 mmHg 29%
    16:00 +25°C° 0 mm 5 mps 735 mmHg 30%
    17:00 +22°C° 0.1 mm 6 mps 736 mmHg 38%
    18:00 +19°C° 0.1 mm 6 mps 736 mmHg 46%
    19:00 +16°C° 0.1 mm 6 mps 736 mmHg 55%
    20:00 +14°C° 0.4 mm 5 mps 737 mmHg 64%
    21:00 +11°C° 0.4 mm 4 mps 738 mmHg 74%
    22:00 +8°C° 0.4 mm 3 mps 738 mmHg 83%
    23:00 +8°C° 0.5 mm 3 mps 738 mmHg 85%

    Day after tomorrow, 22 November, Thursday

    Time Temperature Precipitation Wind Pressure Humidity
    00:00 +8°C° 0.5 mm 2 mps 738 mmHg 87%
    01:00 +7°C° 0.5 mm 2 mps 738 mmHg 89%
    02:00 +7°C° 0.1 mm 2 mps 738 mmHg 89%
    03:00 +7°C° 0.1 mm 3 mps 737 mmHg 89%
    04:00 +7°C° 0.1 mm 3 mps 737 mmHg 89%
    05:00 +7°C° 0 mm 4 mps 737 mmHg 83%
    06:00 +8°C° 0 mm 5 mps 736 mmHg 77%
    07:00 +9°C° 0 mm 5 mps 736 mmHg 70%
    08:00 +9°C° 0.4 mm 5 mps 736 mmHg 72%
    09:00 +9°C° 0.4 mm 5 mps 736 mmHg 75%
    10:00 +9°C° 0.4 mm 5 mps 736 mmHg 77%
    11:00 +11°C° 0.6 mm 4 mps 736 mmHg 72%
    12:00 +13°C° 0.6 mm 3 mps 736 mmHg 68%
    13:00 +15°C° 0.6 mm 2 mps 736 mmHg 64%
    14:00 +14°C° 0.7 mm 4 mps 736 mmHg 63%
    15:00 +15°C° 0.7 mm 5 mps 736 mmHg 62%
    16:00 +15°C° 0.7 mm 6 mps 736 mmHg 60%
    17:00 +14°C° 0.1 mm 6 mps 737 mmHg 62%
    18:00 +14°C° 0.1 mm 5 mps 738 mmHg 65%
    19:00 +13°C° 0.1 mm 5 mps 739 mmHg 67%
    20:00 +12°C° 0 mm 5 mps 740 mmHg 71%
    21:00 +10°C° 0 mm 5 mps 741 mmHg 76%
    22:00 +9°C° 0 mm 5 mps 742 mmHg 80%
    23:00 +8°C° 0 mm 4 mps 742 mmHg 81%

    23 November, Friday

    Time Temperature Precipitation Wind Pressure Humidity
    00:00 +8°C° 0 mm 4 mps 742 mmHg 82%
    01:00 +7°C° 0 mm 4 mps 742 mmHg 83%
    02:00 +7°C° 0 mm 4 mps 742 mmHg 85%
    03:00 +6°C° 0 mm 4 mps 742 mmHg 86%
    04:00 +7°C° 0 mm 3 mps 742 mmHg 87%
    05:00 +7°C° 0 mm 4 mps 742 mmHg 82%
    06:00 +8°C° 0 mm 5 mps 742 mmHg 76%
    07:00 +9°C° 0 mm 6 mps 743 mmHg 71%
    08:00 +10°C° 0.1 mm 6 mps 742 mmHg 66%
    09:00 +11°C° 0.1 mm 7 mps 742 mmHg 61%
    10:00 +12°C° 0.1 mm 7 mps 742 mmHg 57%
    11:00 +12°C° 0.1 mm 8 mps 742 mmHg 56%
    12:00 +13°C° 0.1 mm 8 mps 741 mmHg 55%
    13:00 +13°C° 0.1 mm 9 mps 741 mmHg 54%
    14:00 +15°C° 0.1 mm 9 mps 741 mmHg 55%
    15:00 +15°C° 0.1 mm 9 mps 741 mmHg 55%
    16:00 +14°C° 0.1 mm 10 mps 740 mmHg 56%
    17:00 +13°C° 0.1 mm 9 mps 741 mmHg 59%
    18:00 +13°C° 0.1 mm 9 mps 741 mmHg 62%
    19:00 +12°C° 0.1 mm 9 mps 741 mmHg 65%
    20:00 +12°C° 0.1 mm 8 mps 742 mmHg 67%
    21:00 +12°C° 0.1 mm 8 mps 742 mmHg 70%
    22:00 +11°C° 0.1 mm 7 mps 742 mmHg 72%
    23:00 +11°C° 0 mm 7 mps 742 mmHg 74%

    24 November, Saturday

    Time Temperature Precipitation Wind Pressure Humidity
    00:00 +11°C° 0 mm 6 mps 742 mmHg 76%
    01:00 +11°C° 0 mm 6 mps 742 mmHg 77%
    02:00 +10°C° 0 mm 6 mps 742 mmHg 78%
    03:00 +10°C° 0 mm 5 mps 741 mmHg 79%
    04:00 +10°C° 0 mm 5 mps 741 mmHg 80%
    05:00 +10°C° 0 mm 5 mps 742 mmHg 76%
    06:00 +11°C° 0 mm 6 mps 742 mmHg 72%
    07:00 +13°C° 0 mm 6 mps 742 mmHg 68%
    08:00 +14°C° 0 mm 6 mps 743 mmHg 63%
    09:00 +16°C° 0 mm 6 mps 743 mmHg 58%
    10:00 +17°C° 0 mm 6 mps 743 mmHg 52%
    11:00 +19°C° 0 mm 6 mps 742 mmHg 51%
    12:00 +19°C° 0 mm 6 mps 742 mmHg 49%
    13:00 +20°C° 0 mm 6 mps 742 mmHg 48%
    14:00 +20°C° 0 mm 6 mps 741 mmHg 48%
    15:00 +20°C° 0 mm 6 mps 741 mmHg 48%
    16:00 +20°C° 0 mm 5 mps 741 mmHg 48%
    17:00 +19°C° 0 mm 5 mps 741 mmHg 54%
    18:00 +18°C° 0 mm 4 mps 741 mmHg 59%
    19:00 +16°C° 0 mm 3 mps 742 mmHg 65%
    20:00 +14°C° 0 mm 3 mps 742 mmHg 72%
    21:00 +13°C° 0 mm 3 mps 742 mmHg 78%
    22:00 +11°C° 0 mm 3 mps 742 mmHg 85%
    23:00 +11°C° 0 mm 3 mps 742 mmHg 87%

    25 November, Sunday

    Time Temperature Precipitation Wind Pressure Humidity
    00:00 +10°C° 0 mm 3 mps 742 mmHg 90%
    01:00 +10°C° 0 mm 3 mps 742 mmHg 92%
    02:00 +9°C° 0 mm 3 mps 742 mmHg 93%
    03:00 +9°C° 0 mm 3 mps 742 mmHg 94%
    04:00 +9°C° 0 mm 3 mps 742 mmHg 95%
    05:00 +10°C° 0 mm 3 mps 742 mmHg 89%
    06:00 +12°C° 0 mm 3 mps 742 mmHg 82%
    07:00 +13°C° 0 mm 4 mps 743 mmHg 76%
    08:00 +15°C° 0 mm 4 mps 743 mmHg 68%
    09:00 +18°C° 0 mm 4 mps 743 mmHg 60%
    10:00 +20°C° 0 mm 3 mps 743 mmHg 51%
    11:00 +21°C° 0 mm 4 mps 742 mmHg 48%
    12:00 +23°C° 0 mm 4 mps 742 mmHg 44%
    13:00 +25°C° 0 mm 4 mps 742 mmHg 41%
    14:00 +25°C° 0 mm 5 mps 741 mmHg 42%
    15:00 +25°C° 0 mm 5 mps 741 mmHg 43%
    16:00 +23°C° 0 mm 5 mps 741 mmHg 44%
    17:00 +22°C° 0 mm 5 mps 741 mmHg 50%
    18:00 +20°C° 0 mm 5 mps 742 mmHg 56%
    19:00 +19°C° 0 mm 4 mps 742 mmHg 61%
    20:00 +17°C° 0 mm 4 mps 743 mmHg 66%
    21:00 +15°C° 0 mm 4 mps 743 mmHg 71%
    22:00 +13°C° 0 mm 4 mps 743 mmHg 76%
    23:00 +13°C° 0 mm 4 mps 743 mmHg 79%
    Show more